sat.trackr.live / text

‹ back to catalog

STARLINK-5448

NORAD 54770 · 2022-175N

PAYLOAD ACTIVE UNKNOWN

§ Identity

Operator
Country
US
Launch date
2022-12-17
Launch site
AFETR
Launch vehicle
Mass (kg)
RCS (m²)

Purposes: comms

External: N2YO · Heavens-Above · Gunter

§ Orbital elements

Epoch: 2026-05-25T02:36:42.987168Z

Period
95.44 min
Inclination
53.2132°
Eccentricity
0.0001559
Mean motion
15.08840853 rev/d
Perigee alt
538.7 km
Apogee alt
540.8 km
Semi-major
6,917.9 km
B*
5.0681e-5
RAAN
46.2421°
Arg perigee
100.2942°
Mean anomaly
259.8226°
Rev number
19,166

§ Raw data

STARLINK-54481 54770U 22175N   26145.10883087  .00000519  00000+0  50681-4 0  99912 54770  53.2132  46.2421 0001559 100.2942 259.8226 15.08840853191667

JSON: /api/v1/satellites/54770 · /tle

For live sub-satellite position, see the globe view (requires WebGL).

§ Visibility from observer

Set your observer location to see the next 7 days of passes ≥ 10°. The values pass through the URL so the page stays shareable.

No JS? Fill the form by hand. The geolocation button needs JavaScript.